Stations météo

réclame
Mon MeteoGroup
Mannheim, Allemagne (10729): Température de l'air & dewpoint: 17.04.2018 03:00:00 - 23.04.2018 03:00:00 (CEST)Mannheim, Allemagne (10729): Température de l'air 5cm & Température de l'air -5cm: 17.04.2018 03:00:00 - 23.04.2018 03:00:00 (CEST)Mannheim, Allemagne (10729): Température de l'air -20cm & Température de l'air -100cm: 17.04.2018 03:00:00 - 23.04.2018 03:00:00 (CEST)Mannheim, Allemagne (10729): Vitesse du vent & gusts: 17.04.2018 03:00:00 - 23.04.2018 03:00:00 (CEST)Mannheim, Allemagne (10729): Direction du vent: 17.04.2018 03:00:00 - 23.04.2018 03:00:00 (CEST)Mannheim, Allemagne (10729): reduced air pressure: 17.04.2018 03:00:00 - 23.04.2018 03:00:00 (CEST)Mannheim, Allemagne (10729): visibility: 17.04.2018 03:00:00 - 23.04.2018 03:00:00 (CEST)Mannheim, Allemagne (10729): Ensoleillement: 17.04.2018 03:00:00 - 23.04.2018 03:00:00 (CEST)Mannheim, Allemagne (10729): Quantités de précipitations: 17.04.2018 03:00:00 - 23.04.2018 03:00:00 (CEST)
Date & Time tt [°C] td [°C] tt 5cm [°C] tt -5cm [°C] tt -20cm [°C] tt -100cm [°C] ff [km/h] ff [knt] fx [km/h] fx [knt] dd ppp [hPa] vv [km] sd [min] rr [mm]
23.04.2018 03:00:00 16,5 8,9 12,1 18,7 20,4 13,2 8 4 11 6 S 1013,7 43 0 0,0
23.04.2018 02:00:00 17,6 8,9 15,0 19,6 20,7 13,2 9 5 12 7 S 1013,9 47 0 0,0
23.04.2018 01:00:00 18,5 10,0 15,9 20,3 20,9 13,2 4 2 10 5 SSE 1013,9 43 0 0,0
23.04.2018 00:00:00 18,4 10,4 16,5 20,8 21,1 13,1 7 4 9 5 S 1013,8 47 0 0,0
22.04.2018 23:00:00 19,4 10,2 17,1 21,2 21,4 13,1 6 4 12 7 S 1013,2 44 0 0,0
22.04.2018 22:00:00 20,7 9,2 14,8 22,0 21,6 13,1 7 4 18 10 S 1012,8 51 0 0,0
22.04.2018 21:00:00 22,6 8,2 16,0 23,3 21,6 13,1 8 5 24 13 SW 1012,2 54 0 0,0
22.04.2018 20:00:00 24,2 7,7 22,1 24,9 21,6 13,1 14 8 23 12 WSW 1011,6 44 4 0,0
22.04.2018 19:00:00 24,9 9,7 23,4 26,2 21,4 13,1 14 7 30 16 WSW 1011,3 51 16 0,0
22.04.2018 18:00:00 26,4 10,5 25,8 27,7 21,0 13,1 18 10 32 17 SW 1011,0 42 48 0,0
22.04.2018 17:00:00 27,5 11,7 29,0 28,6 20,6 13,1 16 9 27 14 SW 1011,2 42 59 0,0
22.04.2018 16:00:00 26,8 11,9 29,8 29,0 20,0 13,0 18 10 30 16 S 1012,1 31 58 0,0
22.04.2018 15:00:00 27,1 11,7 32,7 29,5 19,3 13,0 14 7 22 12 S 1012,9 24 60 0,0
22.04.2018 14:00:00 26,3 14,8 32,4 28,3 18,7 13,0 9 5 19 10 SSE 1013,4 23 60 0,0
22.04.2018 13:00:00 24,7 14,4 30,0 26,3 18,2 13,0 9 5 18 10 SSE 1014,1 17 60 0,0
22.04.2018 12:00:00 23,1 14,4 28,1 23,9 17,9 13,0 7 4 17 9 SSE 1015,0 15 60 0,0
22.04.2018 11:00:00 20,7 13,3 23,5 21,6 17,7 12,9 10 5 16 9 S 1015,5 11 60 0,0
22.04.2018 10:00:00 18,4 13,0 20,9 19,3 17,7 12,9 2 1 9 5 NNW 1015,5 6 60 0,0
22.04.2018 09:00:00 16,8 12,4 18,2 17,0 17,9 12,9 3 1 10 5 E 1015,5 7 60 0,0
22.04.2018 08:00:00 14,0 12,0 14,0 15,3 18,1 12,9 5 3 9 5 WNW 1015,6 6 37 0,0
22.04.2018 07:00:00 11,2 11,0 7,8 14,9 18,4 12,9 4 2 7 4 N 1015,4 5 0 0,0
22.04.2018 06:00:00 10,5 10,4 7,6 15,4 18,7 12,9 5 3 6 3 W 1015,4 3,8 0 0,0
22.04.2018 05:00:00 12,3 11,3 8,4 16,0 19,0 12,8 2 1 13 7 N 1015,9 6 0 0,0
22.04.2018 04:00:00 12,8 11,4 8,9 16,5 19,4 12,8 5 3 9 5 W 1016,2 5 0 0,0
22.04.2018 03:00:00 12,0 11,5 9,2 17,1 19,7 12,8 5 3 6 3 NW 1016,2 6 0 0,0
22.04.2018 02:00:00 15,1 12,1 11,1 17,7 20,0 12,8 4 2 11 6 NW 1016,9 15 0 0,0
22.04.2018 01:00:00 12,9 11,7 10,0 18,4 20,3 12,8 6 3 9 5 NW 1017,2 6 0 0,0
22.04.2018 00:00:00 14,1 12,5 10,7 19,3 20,6 12,8 2 1 6 3 NNW 1017,1 13 0 0,0
21.04.2018 23:00:00 17,6 12,5 11,6 20,3 20,9 12,7 5 3 8 4 NNE 1016,9 18 0 0,0
21.04.2018 22:00:00 18,5 12,5 12,6 21,4 21,0 12,7 5 3 8 5 NNE 1017,1 19 0 0,0
21.04.2018 21:00:00 18,6 12,5 14,3 22,9 21,1 12,7 4 2 10 5 N 1016,9 23 0 0,0
21.04.2018 20:00:00 24,1 10,9 19,9 24,5 21,0 12,7 6 4 13 7 N 1016,5 37 44 0,0
21.04.2018 19:00:00 25,6 12,1 25,2 25,9 20,8 12,7 7 4 13 7 NNE 1016,6 34 59 0,0
21.04.2018 18:00:00 26,4 11,2 27,8 26,7 20,5 12,7 6 4 12 6 NE 1016,9 39 55 0,0
21.04.2018 17:00:00 26,4 12,1 29,3 27,1 20,1 12,7 8 4 14 8 NE 1017,5 35 28 0,0
21.04.2018 16:00:00 25,7 11,7 26,8 27,6 19,6 12,6 3 2 13 7 SE 1018,0 29 7 0,0
21.04.2018 15:00:00 26,5 12,5 32,7 29,1 18,9 12,6 5 3 14 8 E 1018,6 21 55 0,0
21.04.2018 14:00:00 25,9 12,7 30,6 28,1 18,3 12,6 4 2 10 5 WNW 1019,1 21 60 0,0
21.04.2018 13:00:00 25,0 14,7 31,4 26,0 17,8 12,6 5 3 13 7 E 1019,8 23 60 0,0
21.04.2018 12:00:00 22,6 12,5 27,6 23,5 17,4 12,6 4 2 7 4 ESE 1020,5 19 60 0,0
21.04.2018 11:00:00 21,8 13,2 23,7 21,1 17,2 12,5 0 0 6 3 N 1020,7 18 60 0,0
21.04.2018 10:00:00 18,3 11,4 20,3 18,5 17,3 12,5 3 2 5 3 SW 1020,7 13 60 0,0
21.04.2018 09:00:00 16,6 10,5 17,0 16,2 17,4 12,5 2 1 4 2 SE 1020,8 14 60 0,0
21.04.2018 08:00:00 12,5 10,2 12,3 14,3 17,7 12,5 0 0 4 2 N 1020,9 11 36 0,0
21.04.2018 07:00:00 8,4 8,2 6,0 13,9 18,1 12,5 3 1 6 4 NE 1020,5 9 0 0,0
21.04.2018 06:00:00 8,8 8,4 5,6 14,4 18,5 12,4 0 0 6 3 N 1020,1 10 0 0,0
21.04.2018 05:00:00 9,5 9,4 5,7 15,0 18,8 12,4 2 1 6 4 NNE 1020,2 12 0 0,0
21.04.2018 04:00:00 9,6 8,7 6,3 15,6 19,2 12,4 2 1 9 5 E 1020,3 14 0 0,0
21.04.2018 03:00:00 10,4 10,0 6,5 16,2 19,6 12,4 3 2 5 3 NNE 1020,4 17 0 0,0
21.04.2018 02:00:00 10,8 10,4 6,5 17,0 20,0 12,4 1 1 5 3 E 1020,5 14 0 0,0
21.04.2018 01:00:00 11,3 10,6 7,4 17,9 20,4 12,4 2 1 5 3 E 1020,6 21 0 0,0
21.04.2018 00:00:00 12,6 11,7 8,0 19,0 20,8 12,3 3 1 3 2 NE 1020,7 21 0 0,0
20.04.2018 23:00:00 12,6 10,5 8,9 20,2 21,1 12,3 2 1 6 3 WSW 1020,7 22 0 0,0
20.04.2018 22:00:00 15,9 11,1 10,0 21,6 21,3 12,3 4 2 6 4 E 1020,6 31 0 0,0
20.04.2018 21:00:00 16,5 10,8 12,0 23,5 21,4 12,3 1 0 6 3 ESE 1020,5 54 0 0,0
20.04.2018 20:00:00 21,4 13,9 17,2 25,6 21,2 12,3 3 1 11 6 NNW 1020,0 54 58 0,0
20.04.2018 19:00:00 25,5 9,5 24,8 27,5 20,9 12,3 8 4 15 8 NW 1020,2 45 60 0,0
20.04.2018 18:00:00 27,6 9,1 32,0 29,0 20,4 12,3 3 2 8 4 E 1020,5 34 60 0,0
20.04.2018 17:00:00 26,9 10,4 33,2 29,8 19,8 12,2 4 2 10 5 E 1020,9 30 60 0,0
20.04.2018 16:00:00 26,6 11,8 30,9 29,8 19,1 12,2 5 3 12 6 W 1021,5 15 60 0,0
20.04.2018 15:00:00 26,0 10,8 31,5 29,1 18,4 12,2 6 3 11 6 SW 1022,2 15 60 0,0
20.04.2018 14:00:00 25,1 10,4 29,9 27,7 17,7 12,2 5 3 13 7 SW 1022,8 18 60 0,0
20.04.2018 13:00:00 24,2 11,1 29,1 25,7 17,2 12,2 6 3 10 5 S 1023,2 34 60 0,0
20.04.2018 12:00:00 22,8 9,8 27,1 23,2 16,8 12,1 4 2 9 5 W 1023,7 30 60 0,0
20.04.2018 11:00:00 20,9 9,3 23,3 20,9 16,6 12,1 4 2 6 4 WNW 1024,0 22 60 0,0
20.04.2018 10:00:00 18,4 9,4 20,5 18,2 16,6 12,1 3 1 7 4 W 1024,2 24 59 0,0
20.04.2018 09:00:00 16,0 8,7 16,7 15,7 16,8 12,1 4 2 10 5 WNW 1024,3 25 60 0,0
20.04.2018 08:00:00 12,5 7,8 12,2 13,7 17,1 12,1 5 3 8 5 NW 1024,3 26 37 0,0
20.04.2018 07:00:00 10,1 7,2 5,2 13,2 17,5 12,0 5 3 9 5 NW 1024,4 28 0 0,0
20.04.2018 06:00:00 9,9 6,9 4,8 13,7 17,9 12,0 6 3 8 5 NNW 1024,5 30 0 0,0
20.04.2018 05:00:00 9,9 7,2 4,9 14,3 18,3 12,0 4 2 9 5 N 1024,7 35 0 0,0
20.04.2018 04:00:00 9,2 7,7 5,5 14,9 18,7 12,0 4 2 6 4 WNW 1025,0 35 0 0,0
20.04.2018 03:00:00 9,9 8,0 5,8 15,7 19,1 12,0 4 2 5 3 NW 1025,0 49 0 0,0
20.04.2018 02:00:00 10,2 7,5 6,3 16,5 19,5 12,0 4 2 6 3 NNE 1025,1 49 0 0,0
20.04.2018 01:00:00 11,3 7,5 6,9 17,5 19,9 11,9 2 1 7 4 NNE 1025,3 50 0 0,0
20.04.2018 00:00:00 15,5 6,5 8,0 18,5 20,2 11,9 6 3 9 5 ENE 1025,3 41 0 0,0
19.04.2018 23:00:00 14,8 8,1 9,1 19,7 20,5 11,9 4 2 6 4 NNE 1025,6 43 0 0,0
19.04.2018 22:00:00 16,4 8,8 10,0 21,2 20,7 11,9 3 2 8 4 ENE 1025,6 43 0 0,0
19.04.2018 21:00:00 18,7 9,0 12,1 23,1 20,8 11,9 5 3 9 5 NE 1025,1 57 11 0,0
19.04.2018 20:00:00 24,4 7,2 21,3 25,1 20,6 11,9 9 5 17 9 E 1024,6 58 60 0,0
19.04.2018 19:00:00 25,9 8,5 26,7 27,0 20,3 11,9 9 5 19 10 E 1024,6 48 60 0,0
19.04.2018 18:00:00 27,0 8,5 30,4 28,6 19,8 11,8 9 5 15 8 ESE 1024,7 55 60 0,0
19.04.2018 17:00:00 27,7 8,9 32,3 29,6 19,1 11,8 3 2 9 5 S 1024,9 42 60 0,0
19.04.2018 16:00:00 27,2 11,3 32,4 29,6 18,4 11,8 3 2 8 5 SSW 1025,6 33 60 0,0
19.04.2018 15:00:00 26,6 7,4 31,5 28,8 17,7 11,8 3 1 10 5 NW 1026,4 47 60 0,0
19.04.2018 14:00:00 25,8 9,4 31,6 27,2 17,0 11,8 3 2 10 6 W 1026,9 24 60 0,0
19.04.2018 13:00:00 23,9 10,2 28,9 24,9 16,5 11,8 4 2 13 7 W 1027,6 24 60 0,0
19.04.2018 12:00:00 22,9 8,8 26,9 22,2 16,1 11,7 7 4 21 11 S 1028,2 37 60 0,0
19.04.2018 11:00:00 21,7 9,2 23,8 20,0 15,9 11,7 10 6 18 10 S 1028,3 30 60 0,0
19.04.2018 10:00:00 20,7 9,2 22,0 17,7 15,9 11,7 3 2 11 6 S 1028,3 17 60 0,0
19.04.2018 09:00:00 17,1 10,6 17,7 15,0 16,1 11,7 3 2 13 7 W 1028,6 18 60 0,0
19.04.2018 08:00:00 12,2 9,8 12,0 13,1 16,3 11,6 6 3 9 5 W 1028,6 18 35 0,0
19.04.2018 07:00:00 8,2 7,0 5,7 12,6 16,7 11,6 4 2 8 5 WNW 1028,7 15 0 0,0
19.04.2018 06:00:00 9,5 6,4 4,9 13,0 17,0 11,6 8 4 11 6 NNE 1028,6 26 0 0,0
19.04.2018 05:00:00 8,8 7,7 5,0 13,6 17,4 11,6 4 2 7 4 NNW 1028,7 23 0 0,0
19.04.2018 04:00:00 10,6 8,2 6,0 14,2 17,8 11,6 4 2 8 5 NNW 1028,8 30 0 0,0
19.04.2018 03:00:00 9,2 7,4 5,7 14,9 18,2 11,6 4 2 5 3 WNW 1028,9 21 0 0,0
19.04.2018 02:00:00 10,8 8,3 6,6 15,7 18,5 11,6 3 2 6 3 NW 1029,1 29 0 0,0
19.04.2018 01:00:00 11,8 8,4 7,2 16,6 18,9 11,5 4 2 6 4 N 1029,0 31 0 0,0
19.04.2018 00:00:00 13,1 8,3 8,2 17,6 19,2 11,5 6 3 11 6 NW 1029,1 30 0 0,0
18.04.2018 23:00:00 16,4 8,1 9,4 18,8 19,5 11,5 6 3 10 5 NNW 1029,0 40 0 0,0
18.04.2018 22:00:00 17,3 7,3 10,0 20,2 19,7 11,5 5 3 9 5 NNE 1029,2 41 0 0,0
18.04.2018 21:00:00 19,9 6,3 12,6 21,8 19,7 11,5 5 3 16 9 NE 1028,9 51 13 0,0
18.04.2018 20:00:00 22,3 7,1 19,3 23,6 19,6 11,5 9 5 16 9 E 1028,6 56 60 0,0
18.04.2018 19:00:00 24,4 7,9 25,2 25,4 19,3 11,5 10 5 21 11 E 1028,7 61 60 0,0
18.04.2018 18:00:00 25,2 7,3 27,0 26,9 18,8 11,4 13 7 22 12 ENE 1028,7 36 60 0,0
18.04.2018 17:00:00 25,8 6,8 30,2 28,0 18,2 11,4 11 6 23 13 E 1028,9 37 60 0,0
18.04.2018 16:00:00 25,8 7,0 31,0 28,5 17,5 11,4 8 5 21 11 E 1029,4 48 60 0,0
18.04.2018 15:00:00 25,0 9,2 30,5 27,8 16,8 11,4 4 2 14 8 WSW 1029,9 27 60 0,0
18.04.2018 14:00:00 24,2 10,3 30,0 26,3 16,1 11,4 5 3 11 6 N 1030,3 21 60 0,0
18.04.2018 13:00:00 22,8 10,9 27,5 24,0 15,6 11,4 7 4 11 6 SSW 1030,9 28 60 0,0
18.04.2018 12:00:00 21,2 10,7 25,1 21,2 15,2 11,3 4 2 8 5 WSW 1031,3 31 60 0,0
18.04.2018 11:00:00 18,6 11,0 20,7 18,6 15,1 11,3 0 0 6 4 N 1031,5 18 60 0,0
18.04.2018 10:00:00 15,7 9,1 17,3 15,8 15,1 11,3 3 1 7 4 NNW 1031,3 21 60 0,0
18.04.2018 09:00:00 13,5 10,0 13,9 14,1 15,3 11,3 4 2 7 4 NW 1031,2 17 60 0,0
18.04.2018 08:00:00 12,5 9,2 11,1 12,2 15,6 11,3 3 1 8 5 NNE 1030,9 16 33 0,0
18.04.2018 07:00:00 7,0 6,7 4,7 11,7 15,9 11,2 5 3 6 3 NNW 1030,5 12 0 0,0
18.04.2018 06:00:00 6,9 6,9 4,0 12,2 16,2 11,2 4 2 6 4 NW 1030,2 11 0 0,0
18.04.2018 05:00:00 7,9 7,7 4,7 12,9 16,6 11,2 1 1 5 3 E 1030,0 13 0 0,0
18.04.2018 04:00:00 8,0 7,2 5,6 13,5 17,0 11,2 2 1 8 4 NNW 1029,8 17 0 0,0
18.04.2018 03:00:00 9,3 8,0 5,7 14,2 17,3 11,2 6 3 7 4 N 1029,6 26 0 0,0
18.04.2018 02:00:00 9,7 9,0 6,5 15,0 17,7 11,2 4 2 6 3 WNW 1029,2 25 0 0,0
18.04.2018 01:00:00 11,2 7,7 7,6 15,9 18,1 11,2 3 2 9 5 SSE 1028,6 34 0 0,0
18.04.2018 00:00:00 13,3 7,6 7,5 16,8 18,4 11,2 5 3 8 4 NE 1028,2 39 0 0,0
17.04.2018 23:00:00 12,2 9,4 8,4 18,0 18,7 11,1 4 2 6 3 NE 1028,0 22 0 0,0
17.04.2018 22:00:00 14,1 9,6 9,5 19,3 18,8 11,1 4 2 11 6 E 1027,5 18 0 0,0
17.04.2018 21:00:00 16,4 9,2 11,2 21,1 18,9 11,1 8 4 10 5 N 1026,9 37 3 0,0
17.04.2018 20:00:00 20,6 9,3 16,5 23,2 18,7 11,1 4 2 6 3 NE 1025,9 58 58 0,0
17.04.2018 19:00:00 22,4 7,7 23,1 24,7 18,3 11,1 3 2 7 4 SSE 1025,1 67 60 0,0
17.04.2018 18:00:00 22,7 7,8 26,4 26,2 17,8 11,1 3 2 10 6 SSE 1024,8 53 60 0,0
17.04.2018 17:00:00 23,4 8,2 26,7 27,1 17,2 11,1 3 2 14 8 NW 1025,0 44 60 0,0
17.04.2018 16:00:00 22,5 7,7 26,8 27,1 16,5 11,0 3 2 16 9 W 1025,0 39 60 0,0
17.04.2018 15:00:00 21,3 10,5 25,6 26,3 15,8 11,0 9 5 18 10 SW 1025,2 23 60 0,0
17.04.2018 14:00:00 20,9 8,5 25,1 24,9 15,1 11,0 5 3 11 6 WNW 1025,4 21 60 0,0
17.04.2018 13:00:00 19,9 9,6 24,5 22,9 14,6 11,0 5 3 11 6 SSW 1025,6 12 60 0,0
17.04.2018 12:00:00 18,4 9,6 22,5 20,3 14,2 11,0 4 2 10 6 SW 1026,1 11 60 0,0
17.04.2018 11:00:00 16,7 9,6 19,5 17,8 14,0 11,0 3 1 6 4 SE 1025,7 16 60 0,0
17.04.2018 10:00:00 15,3 9,7 17,0 15,2 14,1 10,9 2 1 5 3 NNW 1025,6 14 60 0,0
17.04.2018 09:00:00 12,9 8,6 11,3 12,7 14,3 10,9 2 1 6 3 SSE 1024,9 13 60 0,0
17.04.2018 08:00:00 9,4 7,5 8,7 10,9 14,6 10,9 0 0 3 2 N 1024,5 13 33 0,0
17.04.2018 07:00:00 6,6 6,6 3,5 10,6 14,9 10,9 2 1 6 3 NE 1023,8 6 0 0,0
17.04.2018 06:00:00 7,6 7,5 5,2 11,1 15,2 10,9 4 2 5 3 ENE 1023,0 13 0 0,0
17.04.2018 05:00:00 7,0 6,8 4,1 11,7 15,6 10,9 3 2 6 4 NW 1022,5 10 0 0,0
17.04.2018 04:00:00 8,7 7,7 4,5 12,3 15,9 10,9 4 2 6 3 NNE 1022,1 19 0 0,0
17.04.2018 03:00:00 8,6 7,6 4,9 13,0 16,3 10,8 5 3 6 3 NNW 1021,7 21 0 0,0

tt = Température de l'air
td = dewpoint
tt 5cm = Température de l'air 5cm
tt -5cm = Température de l'air -5cm
tt -20cm = Température de l'air -20cm
tt -100cm = Température de l'air -100cm
ff = Vitesse du vent
fx = gusts
dd = Direction du vent
ppp = reduced air pressure
vv = visibility
sd = Ensoleillement
rr = Quantités de précipitations

stations d'obs. à proximité